OAL929 HAAB-HCMM

Flight info

Callsign OAL929
Flight time 1h 33m
Altitude 37000
Route IMKIT UQ555 MAV ETODA
Aircraft B738/M-V/N

Departure

Time 2026-05-06 11:24
Airport Addis Ababa Bole International Airport (HAAB)

Arrival

Time 2026-05-06 12:57
Airport Aden Adde International Airport (HCMM)
Time Latitude Longitude Altitude Speed Heading
2026-05-06 11:16 8.97846 38.78304 7624 ft 0 kts 342°
2026-05-06 11:20 8.97848 38.78303 7624 ft 3 kts 327°
2026-05-06 11:21 8.97820 38.78284 7626 ft 11 kts 166°
2026-05-06 11:21 8.97721 38.78301 7624 ft 15 kts 175°
2026-05-06 11:21 8.97619 38.78301 7624 ft 15 kts 180°
2026-05-06 11:21 8.97524 38.78270 7629 ft 15 kts 208°
2026-05-06 11:22 8.97443 38.78258 7626 ft 0 kts 152°
2026-05-06 11:23 8.97425 38.78292 7626 ft 19 kts 95°
2026-05-06 11:23 8.97521 38.78642 7623 ft 85 kts 73°
2026-05-06 11:23 8.97750 38.79422 7616 ft 142 kts 73°
2026-05-06 11:23 8.98077 38.80522 7798 ft 174 kts 72°
2026-05-06 11:24 8.98465 38.81671 8730 ft 178 kts 75°
2026-05-06 11:24 8.98768 38.82879 9496 ft 176 kts 81°
2026-05-06 11:24 8.98631 38.84143 9938 ft 198 kts 116°
2026-05-06 11:24 8.97528 38.85095 10106 ft 228 kts 156°
2026-05-06 11:25 8.95857 38.85277 10344 ft 255 kts 184°
2026-05-06 11:25 8.94073 38.84917 10825 ft 267 kts 187°
2026-05-06 11:25 8.92231 38.84597 11494 ft 267 kts 185°
2026-05-06 11:25 8.90395 38.84325 12182 ft 270 kts 185°
2026-05-06 11:26 8.88508 38.83926 12536 ft 287 kts 194°
2026-05-06 11:26 8.86526 38.83266 12675 ft 312 kts 197°
2026-05-06 11:26 8.84410 38.82499 12831 ft 335 kts 197°
2026-05-06 11:26 8.82143 38.81682 12961 ft 357 kts 197°
2026-05-06 11:27 8.79725 38.80833 13096 ft 378 kts 197°
2026-05-06 11:27 8.77175 38.79945 13188 ft 396 kts 197°
2026-05-06 11:27 8.74530 38.79040 13535 ft 404 kts 197°
2026-05-06 11:27 8.71866 38.78135 14118 ft 405 kts 197°
2026-05-06 11:28 8.69179 38.77224 14545 ft 409 kts 197°
2026-05-06 11:28 8.66510 38.76340 15031 ft 409 kts 194°
2026-05-06 11:28 8.63713 38.75794 15477 ft 410 kts 183°
2026-05-06 11:28 8.60830 38.75786 15926 ft 410 kts 173°
2026-05-06 11:29 8.57982 38.76025 16439 ft 412 kts 173°
2026-05-06 11:29 8.55123 38.76253 16934 ft 415 kts 173°
2026-05-06 11:29 8.52230 38.76470 17392 ft 418 kts 174°
2026-05-06 11:29 8.49317 38.76681 17886 ft 421 kts 174°
2026-05-06 11:30 8.46419 38.76883 18311 ft 423 kts 174°
2026-05-06 11:30 8.43472 38.77087 18670 ft 427 kts 174°
2026-05-06 11:30 8.40464 38.77294 19042 ft 429 kts 174°
2026-05-06 11:30 8.37480 38.77498 19439 ft 431 kts 174°
2026-05-06 11:31 8.34468 38.77703 19823 ft 434 kts 174°
2026-05-06 11:31 8.31466 38.77908 20153 ft 437 kts 174°
2026-05-06 11:31 8.28406 38.78117 20503 ft 439 kts 174°
2026-05-06 11:31 8.25336 38.78327 20841 ft 442 kts 174°
2026-05-06 11:32 8.22268 38.78538 21180 ft 444 kts 174°
2026-05-06 11:32 8.19179 38.78751 21521 ft 447 kts 174°
2026-05-06 11:32 8.16076 38.78965 21853 ft 449 kts 174°
2026-05-06 11:32 8.12961 38.79180 22190 ft 451 kts 175°
2026-05-06 11:33 8.09828 38.79395 22495 ft 453 kts 175°
2026-05-06 11:33 8.06630 38.79613 22787 ft 456 kts 175°
2026-05-06 11:33 8.03500 38.79827 23080 ft 458 kts 175°
2026-05-06 11:33 8.00308 38.80045 23371 ft 459 kts 175°
2026-05-06 11:34 7.97101 38.80264 23609 ft 461 kts 175°
2026-05-06 11:34 7.93902 38.80484 23825 ft 463 kts 175°
2026-05-06 11:34 7.90656 38.80706 24062 ft 464 kts 175°
2026-05-06 11:34 7.87434 38.80926 24307 ft 465 kts 175°
2026-05-06 11:35 7.84206 38.81146 24532 ft 467 kts 175°
2026-05-06 11:35 7.80938 38.81370 24777 ft 468 kts 175°
2026-05-06 11:35 7.77688 38.81593 25017 ft 469 kts 175°
2026-05-06 11:35 7.74431 38.81816 25241 ft 471 kts 175°
2026-05-06 11:36 7.71148 38.82040 25459 ft 472 kts 175°
2026-05-06 11:36 7.67859 38.82265 25672 ft 474 kts 175°
2026-05-06 11:36 7.64602 38.82488 25886 ft 475 kts 175°
2026-05-06 11:36 7.61293 38.82715 26104 ft 476 kts 175°
2026-05-06 11:37 7.57981 38.82941 26319 ft 477 kts 175°
2026-05-06 11:37 7.54667 38.83168 26514 ft 478 kts 175°
2026-05-06 11:37 7.51335 38.83396 26708 ft 480 kts 175°
2026-05-06 11:37 7.48000 38.83623 26917 ft 481 kts 175°
2026-05-06 11:38 7.44638 38.83863 27121 ft 482 kts 174°
2026-05-06 11:38 7.41368 38.84389 27245 ft 483 kts 164°
2026-05-06 11:38 7.38127 38.85388 27468 ft 482 kts 161°
2026-05-06 11:38 7.34947 38.86426 27714 ft 482 kts 161°
2026-05-06 11:39 7.31755 38.87455 27858 ft 484 kts 161°
2026-05-06 11:39 7.28543 38.88475 27994 ft 486 kts 162°
2026-05-06 11:39 7.25311 38.89486 28144 ft 487 kts 162°
2026-05-06 11:39 7.22028 38.90504 28337 ft 488 kts 162°
2026-05-06 11:40 7.18789 38.91502 28510 ft 489 kts 162°
2026-05-06 11:40 7.15539 38.92503 28740 ft 488 kts 162°
2026-05-06 11:40 7.12316 38.93496 29019 ft 487 kts 162°
2026-05-06 11:40 7.09062 38.94499 29318 ft 485 kts 162°
2026-05-06 11:41 7.06991 38.95137 29509 ft 485 kts 162°
2026-05-06 11:41 7.03765 38.96132 29745 ft 485 kts 162°
2026-05-06 11:41 7.00538 38.97127 29961 ft 485 kts 162°
2026-05-06 11:41 6.97313 38.98121 30208 ft 484 kts 162°
2026-05-06 11:42 6.94098 38.99113 30438 ft 483 kts 162°
2026-05-06 11:42 6.90885 39.00104 30627 ft 483 kts 162°
2026-05-06 11:42 6.87667 39.01096 30779 ft 485 kts 162°
2026-05-06 11:42 6.84443 39.02091 30959 ft 485 kts 162°
2026-05-06 11:43 6.81220 39.03084 31195 ft 484 kts 162°
2026-05-06 11:43 6.78005 39.04075 31402 ft 484 kts 162°
2026-05-06 11:43 6.74781 39.05069 31571 ft 485 kts 162°
2026-05-06 11:44 6.68318 39.07061 31946 ft 485 kts 162°
2026-05-06 11:44 6.65093 39.08054 32204 ft 485 kts 162°
2026-05-06 11:44 6.61870 39.09046 32437 ft 484 kts 162°
2026-05-06 11:44 6.58648 39.10038 32649 ft 484 kts 162°
2026-05-06 11:45 6.55432 39.11029 32880 ft 483 kts 162°
2026-05-06 11:45 6.52221 39.12018 33096 ft 483 kts 162°
2026-05-06 11:45 6.49007 39.13008 33285 ft 484 kts 162°
2026-05-06 11:45 6.45781 39.14000 33474 ft 484 kts 162°
2026-05-06 11:46 6.42567 39.14990 33698 ft 483 kts 162°
2026-05-06 11:46 6.39408 39.15962 33924 ft 483 kts 162°
2026-05-06 11:46 6.36193 39.16951 34115 ft 483 kts 162°
2026-05-06 11:46 6.32979 39.17940 34281 ft 484 kts 162°
2026-05-06 11:47 6.29755 39.18932 34471 ft 484 kts 162°
2026-05-06 11:47 6.26541 39.19920 34699 ft 483 kts 162°
2026-05-06 11:47 6.23331 39.20907 34927 ft 481 kts 162°
2026-05-06 11:47 6.20133 39.21890 35137 ft 481 kts 162°
2026-05-06 11:48 6.16941 39.22871 35347 ft 479 kts 162°
2026-05-06 11:48 6.13761 39.23849 35595 ft 477 kts 162°
2026-05-06 11:48 6.10587 39.24825 35829 ft 476 kts 162°
2026-05-06 11:48 6.07425 39.25797 36029 ft 475 kts 162°
2026-05-06 11:49 6.04261 39.26769 36237 ft 474 kts 162°
2026-05-06 11:49 6.01114 39.27736 36458 ft 473 kts 162°
2026-05-06 11:49 5.97979 39.28699 36690 ft 471 kts 162°
2026-05-06 11:49 5.94830 39.29666 36915 ft 470 kts 162°
2026-05-06 11:50 5.88555 39.31594 36927 ft 473 kts 162°
2026-05-06 11:50 5.82267 39.33525 36917 ft 471 kts 162°
2026-05-06 11:51 5.76024 39.35442 36908 ft 469 kts 162°
2026-05-06 11:51 5.69810 39.37356 36887 ft 467 kts 160°
2026-05-06 11:52 5.66854 39.38673 36832 ft 466 kts 147°
2026-05-06 11:52 5.64255 39.40637 36969 ft 460 kts 136°
2026-05-06 11:52 5.62118 39.43032 36825 ft 463 kts 123°
2026-05-06 11:52 5.60351 39.45714 37119 ft 458 kts 122°
2026-05-06 11:53 5.58566 39.48402 36866 ft 467 kts 123°
2026-05-06 11:53 5.56747 39.51090 36993 ft 467 kts 123°
2026-05-06 11:53 5.54904 39.53787 36878 ft 471 kts 123°
2026-05-06 11:53 5.53049 39.56481 36932 ft 470 kts 123°
2026-05-06 11:54 5.49293 39.61921 36916 ft 471 kts 123°
2026-05-06 11:54 5.45561 39.67330 36908 ft 471 kts 123°
2026-05-06 11:55 5.41836 39.72732 36895 ft 471 kts 123°
2026-05-06 11:55 5.38110 39.78137 36879 ft 470 kts 123°
2026-05-06 11:56 5.34386 39.83537 36879 ft 469 kts 123°
2026-05-06 11:56 5.30681 39.88909 36890 ft 467 kts 123°
2026-05-06 11:57 5.27002 39.94241 36888 ft 466 kts 123°
2026-05-06 11:57 5.23307 39.99598 36871 ft 465 kts 123°
2026-05-06 11:58 5.19620 40.04937 36886 ft 464 kts 123°
2026-05-06 11:58 5.15964 40.10233 36871 ft 463 kts 123°
2026-05-06 11:59 5.12287 40.15560 36863 ft 463 kts 123°
2026-05-06 11:59 5.08632 40.20855 36878 ft 463 kts 123°
2026-05-06 12:00 5.04958 40.26176 36863 ft 464 kts 123°
2026-05-06 12:00 5.01262 40.31527 36881 ft 464 kts 123°
2026-05-06 12:01 4.97591 40.36841 36860 ft 465 kts 123°
2026-05-06 12:01 4.93910 40.42169 36876 ft 465 kts 123°
2026-05-06 12:02 4.90206 40.47528 36871 ft 466 kts 123°
2026-05-06 12:02 4.86512 40.52872 36868 ft 467 kts 124°
2026-05-06 12:03 4.82813 40.58223 36878 ft 467 kts 124°
2026-05-06 12:03 4.79113 40.63574 36867 ft 467 kts 124°
2026-05-06 12:04 4.75438 40.68887 36870 ft 467 kts 124°
2026-05-06 12:04 4.71715 40.74268 36872 ft 466 kts 124°
2026-05-06 12:05 4.68024 40.79604 36870 ft 465 kts 124°
2026-05-06 12:05 4.64363 40.84897 36872 ft 464 kts 124°
2026-05-06 12:06 4.60672 40.90233 36875 ft 464 kts 124°
2026-05-06 12:06 4.57009 40.95528 36866 ft 463 kts 124°
2026-05-06 12:07 4.53343 41.00828 36872 ft 462 kts 124°
2026-05-06 12:07 4.49668 41.06138 36872 ft 461 kts 124°
2026-05-06 12:08 4.46033 41.11390 36863 ft 461 kts 124°
2026-05-06 12:08 4.42372 41.16677 36863 ft 460 kts 124°
2026-05-06 12:09 4.38727 41.21941 36864 ft 459 kts 124°
2026-05-06 12:09 4.35093 41.27189 36852 ft 459 kts 124°
2026-05-06 12:10 4.31446 41.32453 36858 ft 459 kts 124°
2026-05-06 12:10 4.27782 41.37742 36853 ft 459 kts 124°
2026-05-06 12:11 4.24143 41.42993 36842 ft 460 kts 124°
2026-05-06 12:11 4.20501 41.48247 36842 ft 460 kts 124°
2026-05-06 12:12 4.16848 41.53518 36842 ft 460 kts 124°
2026-05-06 12:12 4.13190 41.58794 36836 ft 461 kts 124°
2026-05-06 12:13 4.09514 41.64095 36835 ft 461 kts 124°
2026-05-06 12:13 4.05861 41.69361 36829 ft 461 kts 124°
2026-05-06 12:14 4.02206 41.74630 36823 ft 462 kts 124°
2026-05-06 12:14 3.98541 41.79915 36833 ft 462 kts 124°
2026-05-06 12:15 3.94876 41.85196 36832 ft 462 kts 124°
2026-05-06 12:15 3.91776 41.90839 36904 ft 459 kts 114°
2026-05-06 12:16 3.89099 41.96664 36828 ft 461 kts 114°
2026-05-06 12:16 3.86397 42.02477 36806 ft 462 kts 115°
2026-05-06 12:17 3.83647 42.08305 36806 ft 462 kts 115°
2026-05-06 12:17 3.80899 42.14096 36807 ft 462 kts 115°
2026-05-06 12:18 3.78146 42.19889 36812 ft 462 kts 115°
2026-05-06 12:18 3.75857 42.24709 36820 ft 461 kts 115°
2026-05-06 12:19 3.73104 42.30506 36835 ft 461 kts 115°
2026-05-06 12:19 3.69891 42.37271 36834 ft 461 kts 115°
2026-05-06 12:20 3.67599 42.42097 36815 ft 461 kts 115°
2026-05-06 12:20 3.64836 42.47911 36840 ft 461 kts 115°
2026-05-06 12:21 3.62082 42.53708 36811 ft 462 kts 115°
2026-05-06 12:21 3.59323 42.59512 36836 ft 461 kts 115°
2026-05-06 12:22 3.56563 42.65318 36817 ft 462 kts 115°
2026-05-06 12:22 3.53806 42.71116 36840 ft 462 kts 116°
2026-05-06 12:23 3.51041 42.76931 36820 ft 463 kts 116°
2026-05-06 12:23 3.48259 42.82779 36841 ft 463 kts 116°
2026-05-06 12:24 3.45490 42.88600 36822 ft 463 kts 116°
2026-05-06 12:24 3.42719 42.94422 36845 ft 463 kts 116°
2026-05-06 12:25 3.39952 43.00237 36824 ft 464 kts 116°
2026-05-06 12:25 3.37171 43.06080 36846 ft 464 kts 116°
2026-05-06 12:26 3.34393 43.11914 36831 ft 464 kts 116°
2026-05-06 12:26 3.31624 43.17730 36855 ft 464 kts 116°
2026-05-06 12:27 3.28858 43.23538 36834 ft 464 kts 116°
2026-05-06 12:27 3.26078 43.29373 36855 ft 463 kts 116°
2026-05-06 12:28 3.23302 43.35202 36843 ft 464 kts 116°
2026-05-06 12:28 3.20530 43.41020 36851 ft 463 kts 116°
2026-05-06 12:29 3.17750 43.46852 36860 ft 463 kts 116°
2026-05-06 12:29 3.14981 43.52662 36843 ft 464 kts 116°
2026-05-06 12:30 3.12214 43.58468 36862 ft 463 kts 116°
2026-05-06 12:30 3.09067 43.64080 36795 ft 463 kts 130°
2026-05-06 12:31 3.06913 43.66451 36937 ft 457 kts 135°
2026-05-06 12:31 3.04734 43.68767 36890 ft 460 kts 134°
2026-05-06 12:31 3.00391 43.73511 36304 ft 468 kts 133°
2026-05-06 12:32 2.98204 43.75930 35839 ft 465 kts 133°
2026-05-06 12:32 2.96040 43.78331 34990 ft 470 kts 133°
2026-05-06 12:32 2.93847 43.80762 34568 ft 466 kts 133°
2026-05-06 12:32 2.91657 43.83188 33537 ft 476 kts 133°
2026-05-06 12:33 2.89453 43.85628 33004 ft 471 kts 133°
2026-05-06 12:33 2.87229 43.88087 32178 ft 476 kts 133°
2026-05-06 12:33 2.85017 43.90533 31281 ft 479 kts 133°
2026-05-06 12:33 2.82780 43.93003 30773 ft 475 kts 133°
2026-05-06 12:34 2.80542 43.95476 29988 ft 478 kts 133°
2026-05-06 12:34 2.78331 43.97918 29211 ft 476 kts 133°
2026-05-06 12:34 2.76129 44.00351 28876 ft 466 kts 133°
2026-05-06 12:34 2.73944 44.02764 28195 ft 465 kts 132°
2026-05-06 12:35 2.71792 44.05141 27558 ft 462 kts 132°
2026-05-06 12:35 2.69646 44.07512 27133 ft 456 kts 132°
2026-05-06 12:35 2.67522 44.09857 26490 ft 455 kts 132°
2026-05-06 12:35 2.65408 44.12192 25976 ft 451 kts 132°
2026-05-06 12:36 2.63307 44.14512 25416 ft 449 kts 132°
2026-05-06 12:36 2.61217 44.16819 24858 ft 447 kts 132°
2026-05-06 12:36 2.59140 44.19113 24321 ft 445 kts 132°
2026-05-06 12:36 2.57067 44.21402 23758 ft 443 kts 132°
2026-05-06 12:37 2.55002 44.23681 23177 ft 442 kts 132°
2026-05-06 12:37 2.52943 44.25954 22563 ft 439 kts 131°
2026-05-06 12:37 2.50903 44.28206 22015 ft 435 kts 131°
2026-05-06 12:37 2.48879 44.30440 21471 ft 432 kts 131°
2026-05-06 12:38 2.46869 44.32658 20937 ft 428 kts 131°
2026-05-06 12:38 2.44880 44.34854 20411 ft 425 kts 131°
2026-05-06 12:38 2.42904 44.37034 19893 ft 421 kts 131°
2026-05-06 12:38 2.40941 44.39200 19346 ft 419 kts 131°
2026-05-06 12:39 2.38989 44.41355 18831 ft 416 kts 130°
2026-05-06 12:39 2.37046 44.43500 18292 ft 414 kts 130°
2026-05-06 12:39 2.35118 44.45628 17729 ft 412 kts 130°
2026-05-06 12:39 2.33200 44.47744 17183 ft 408 kts 130°
2026-05-06 12:40 2.31302 44.49837 16653 ft 405 kts 130°
2026-05-06 12:40 2.29421 44.51912 16142 ft 401 kts 130°
2026-05-06 12:40 2.27578 44.53945 15629 ft 388 kts 130°
2026-05-06 12:40 2.25792 44.55913 15168 ft 375 kts 130°
2026-05-06 12:41 2.24065 44.57819 14690 ft 365 kts 130°
2026-05-06 12:41 2.22381 44.59677 14237 ft 356 kts 130°
2026-05-06 12:41 2.20741 44.61486 13772 ft 348 kts 130°
2026-05-06 12:41 2.19130 44.63263 13293 ft 342 kts 130°
2026-05-06 12:42 2.17546 44.65009 12834 ft 336 kts 130°
2026-05-06 12:42 2.15978 44.66739 12398 ft 338 kts 130°
2026-05-06 12:42 2.14360 44.68528 11960 ft 354 kts 130°
2026-05-06 12:42 2.12699 44.70363 11474 ft 355 kts 131°
2026-05-06 12:43 2.11060 44.72170 11014 ft 345 kts 130°
2026-05-06 12:43 2.09474 44.73917 10725 ft 330 kts 131°
2026-05-06 12:43 2.07968 44.75576 10573 ft 315 kts 131°
2026-05-06 12:43 2.06520 44.77171 10456 ft 307 kts 130°
2026-05-06 12:44 2.05085 44.78754 10323 ft 310 kts 130°
2026-05-06 12:44 2.04103 44.79838 10232 ft 311 kts 130°
2026-05-06 12:45 2.01858 44.82315 10028 ft 300 kts 131°
2026-05-06 12:46 2.00470 44.83844 9894 ft 293 kts 131°
2026-05-06 12:46 1.99111 44.85343 9636 ft 291 kts 130°
2026-05-06 12:46 1.97757 44.86837 9332 ft 289 kts 131°
2026-05-06 12:46 1.96408 44.88325 9029 ft 288 kts 131°
2026-05-06 12:47 1.95063 44.89810 8724 ft 287 kts 131°
2026-05-06 12:47 1.93723 44.91288 8426 ft 286 kts 131°
2026-05-06 12:47 1.92389 44.92759 8134 ft 285 kts 131°
2026-05-06 12:47 1.91059 44.94225 7832 ft 284 kts 132°
2026-05-06 12:48 1.89730 44.95691 7544 ft 284 kts 132°
2026-05-06 12:48 1.88388 44.97171 7031 ft 292 kts 132°
2026-05-06 12:48 1.87034 44.98664 6688 ft 288 kts 133°
2026-05-06 12:48 1.85707 45.00127 6389 ft 280 kts 133°
2026-05-06 12:49 1.84419 45.01548 6108 ft 272 kts 133°
2026-05-06 12:49 1.83166 45.02930 5847 ft 264 kts 134°
2026-05-06 12:49 1.81954 45.04267 5615 ft 255 kts 134°
2026-05-06 12:49 1.80791 45.05549 5518 ft 244 kts 134°
2026-05-06 12:50 1.79664 45.06791 5440 ft 240 kts 135°
2026-05-06 12:50 1.78536 45.08034 5341 ft 245 kts 135°
2026-05-06 12:50 1.77397 45.09318 5240 ft 249 kts 128°
2026-05-06 12:50 1.76796 45.10894 5074 ft 240 kts 93°
2026-05-06 12:51 1.77125 45.12469 4886 ft 227 kts 60°
2026-05-06 12:51 1.78077 45.13622 4812 ft 207 kts 37°
2026-05-06 12:51 1.79315 45.14313 4443 ft 202 kts 17°
2026-05-06 12:51 1.80617 45.14733 4235 ft 199 kts 13°
2026-05-06 12:52 1.81963 45.15142 4010 ft 199 kts 13°
2026-05-06 12:52 1.83284 45.15547 3810 ft 199 kts 14°
2026-05-06 12:52 1.84609 45.15956 3600 ft 200 kts 14°
2026-05-06 12:52 1.85939 45.16370 3390 ft 200 kts 14°
2026-05-06 12:53 1.87212 45.16878 3330 ft 193 kts 28°
2026-05-06 12:53 1.88386 45.17573 3169 ft 202 kts 29°
2026-05-06 12:53 1.89605 45.18307 2948 ft 204 kts 30°
2026-05-06 12:53 1.90816 45.19028 2734 ft 201 kts 29°
2026-05-06 12:54 1.91961 45.19703 2567 ft 184 kts 29°
2026-05-06 12:54 1.93014 45.20343 2370 ft 174 kts 35°
2026-05-06 12:54 1.93816 45.21233 2135 ft 171 kts 54°
2026-05-06 12:54 1.94550 45.22183 1907 ft 175 kts 51°
2026-05-06 12:55 1.95318 45.23116 1679 ft 172 kts 51°
2026-05-06 12:55 1.96080 45.24029 1421 ft 170 kts 51°
2026-05-06 12:55 1.96832 45.24931 1192 ft 167 kts 52°
2026-05-06 12:55 1.97573 45.25820 989 ft 170 kts 50°
2026-05-06 12:56 1.98342 45.26741 750 ft 172 kts 51°
2026-05-06 12:56 1.99089 45.27636 513 ft 165 kts 50°
2026-05-06 12:56 1.99843 45.28540 284 ft 174 kts 49°
2026-05-06 12:56 2.00369 45.29155 90 ft 174 kts 50°
2026-05-06 12:57 2.01075 45.30012 28 ft 144 kts 51°
2026-05-06 12:57 2.01404 45.30413 27 ft 19 kts 50°
2026-05-06 12:57 2.01516 45.30459 28 ft 17 kts 328°
2026-05-06 12:57 2.01562 45.30420 29 ft 0 kts 318°